TimeEST,TemperatureF,Dew PointF,Humidity,Sea Level PressureIn,VisibilityMPH,Wind Direction,Wind SpeedMPH,Gust SpeedMPH,PrecipitationIn,Events,Conditions,WindDirDegrees,DateUTC
12:53 AM,33.1,24.1,70,30.26,10.0,Calm,Calm,-,N/A,,Clear,0,2012-02-08 05:53:00
1:53 AM,30.9,23.0,72,30.26,10.0,Calm,Calm,-,N/A,,Clear,0,2012-02-08 06:53:00
2:53 AM,28.0,23.0,81,30.25,8.0,Calm,Calm,-,N/A,,Clear,0,2012-02-08 07:53:00
3:53 AM,28.9,23.0,78,30.25,8.0,Calm,Calm,-,N/A,,Clear,0,2012-02-08 08:53:00
4:53 AM,28.9,24.1,82,30.25,7.0,Calm,Calm,-,N/A,,Clear,0,2012-02-08 09:53:00
5:53 AM,28.9,25.0,85,30.26,7.0,Calm,Calm,-,N/A,,Clear,0,2012-02-08 10:53:00
6:53 AM,30.0,24.1,79,30.26,8.0,Calm,Calm,-,N/A,,Clear,0,2012-02-08 11:53:00
7:53 AM,30.9,26.1,82,30.27,5.0,Calm,Calm,-,N/A,,Haze,0,2012-02-08 12:53:00
8:53 AM,33.1,27.0,78,30.27,6.0,Calm,Calm,-,N/A,,Haze,0,2012-02-08 13:53:00
9:53 AM,35.1,27.0,72,30.26,6.0,Calm,Calm,-,N/A,,Haze,0,2012-02-08 14:53:00
10:53 AM,35.6,26.6,70,30.25,7.0,Variable,3.5,-,N/A,,Overcast,0,2012-02-08 15:53:00
11:05 AM,35.6,26.6,70,30.24,2.0,East,3.5,-,0.00,Snow,Light Snow,100,2012-02-08 16:05:00
11:10 AM,35.6,28.4,75,30.24,0.8,Calm,Calm,-,0.00,Snow,Light Snow,0,2012-02-08 16:10:00
11:27 AM,33.8,30.2,87,30.24,1.0,Calm,Calm,-,0.00,Snow,Light Snow,0,2012-02-08 16:27:00
11:53 AM,34.0,30.0,85,30.23,1.2,Calm,Calm,-,0.01,Snow,Light Snow,0,2012-02-08 16:53:00
12:13 PM,33.8,30.2,87,30.21,2.5,Calm,Calm,-,0.00,Snow,Light Snow,0,2012-02-08 17:13:00
12:27 PM,33.8,30.2,87,30.20,1.5,ENE,3.5,-,0.00,Snow,Light Snow,70,2012-02-08 17:27:00
12:53 PM,34.0,30.9,89,30.20,1.0,Calm,Calm,-,0.00,Snow,Light Snow,0,2012-02-08 17:53:00
1:14 PM,33.8,30.2,87,30.18,0.8,Calm,Calm,-,0.01,Snow,Light Snow,0,2012-02-08 18:14:00
1:28 PM,33.8,30.2,87,30.17,0.5,Calm,Calm,-,0.02,Fog-Snow,Snow,0,2012-02-08 18:28:00
1:45 PM,33.8,30.2,87,30.17,0.5,Calm,Calm,-,0.03,Fog-Snow,Snow,0,2012-02-08 18:45:00
1:53 PM,33.1,30.9,92,30.18,0.5,Calm,Calm,-,0.04,Fog-Snow,Snow,0,2012-02-08 18:53:00
2:53 PM,33.1,30.9,92,30.17,0.5,NE,3.5,-,0.03,Fog-Snow,Snow,50,2012-02-08 19:53:00
3:08 PM,33.8,30.2,87,30.15,0.2,NE,3.5,-,0.01,Fog-Snow,Snow,50,2012-02-08 20:08:00
3:17 PM,33.8,30.2,87,30.15,0.2,Calm,Calm,-,0.02,Fog-Snow,Snow,0,2012-02-08 20:17:00
3:46 PM,33.8,30.2,87,30.14,0.5,NE,3.5,-,0.04,Fog-Snow,Light Snow,40,2012-02-08 20:46:00
3:53 PM,33.1,30.9,92,30.16,0.5,Calm,Calm,-,0.04,Fog-Snow,Snow,0,2012-02-08 20:53:00
4:53 PM,33.1,30.9,92,30.15,0.5,Calm,Calm,-,0.03,Fog-Snow,Light Snow,0,2012-02-08 21:53:00
5:13 PM,33.8,30.2,87,30.12,1.0,Calm,Calm,-,0.00,Snow,Light Snow,0,2012-02-08 22:13:00
5:19 PM,33.8,30.2,87,30.12,0.8,Calm,Calm,-,0.00,Snow,Light Snow,0,2012-02-08 22:19:00
5:46 PM,33.8,30.2,87,30.13,1.0,Calm,Calm,-,0.01,Snow,Light Snow,0,2012-02-08 22:46:00
5:53 PM,33.1,30.9,92,30.14,1.2,Calm,Calm,-,0.01,Snow,Light Snow,0,2012-02-08 22:53:00
6:53 PM,32.0,30.9,96,30.14,1.2,Calm,Calm,-,0.01,,Overcast,0,2012-02-08 23:53:00
7:08 PM,32.0,30.2,93,30.12,1.5,Calm,Calm,-,N/A,,Overcast,0,2012-02-09 00:08:00
7:17 PM,32.0,30.2,93,30.13,2.0,Calm,Calm,-,N/A,,Overcast,0,2012-02-09 00:17:00
7:32 PM,33.8,30.2,87,30.13,3.0,Calm,Calm,-,N/A,,Overcast,0,2012-02-09 00:32:00
7:53 PM,33.1,30.9,92,30.15,4.0,Calm,Calm,-,N/A,,Overcast,0,2012-02-09 00:53:00
8:12 PM,32.0,30.2,93,30.14,4.0,Calm,Calm,-,N/A,,Overcast,0,2012-02-09 01:12:00
8:53 PM,32.0,30.0,92,30.15,4.0,Calm,Calm,-,N/A,,Overcast,0,2012-02-09 01:53:00
9:53 PM,32.0,30.9,96,30.17,3.0,Calm,Calm,-,N/A,,Overcast,0,2012-02-09 02:53:00
10:53 PM,33.1,30.0,89,30.17,5.0,Calm,Calm,-,N/A,,Mostly Cloudy,0,2012-02-09 03:53:00
11:53 PM,35.1,26.1,70,30.18,10.0,NW,11.5,-,N/A,,Overcast,310,2012-02-09 04:53:00